FW4137 Weather Reports


time (UTC)temp
F
wind
direction
speed
knots
gust
knots
rain 1hr
in
rain 24hr
in
rain mn
in
humidity
%
barometer
mb
20260504220021 83 210 5.2 8.7 0.00 0.00 0.00 40 1003.0
20260504214534 83 274 3.5 7.8 0.00 0.00 0.00 40 1003.2
20260504213017 83 212 4.3 8.7 0.00 0.00 0.00 39 1003.3
20260504211514 82 225 3.5 7.8 0.00 0.00 0.00 40 1003.3
20260504210017 82 207 2.6 7.8 0.00 0.00 0.00 39 1003.5
20260504204512 81 257 2.6 8.7 0.00 0.00 0.00 42 1003.5
20260504203010 81 260 2.6 7.8 0.00 0.00 0.00 40 1003.6
20260504201509 82 207 0.9 7.0 0.00 0.00 0.00 42 1003.6
20260504200014 81 184 0.9 5.2 0.00 0.00 0.00 41 1003.7
20260504194509 81 222 0.9 7.8 0.00 0.00 0.00 39 1003.7
20260504193003 81 199 0.9 4.3 0.00 0.00 0.00 37 1003.7
20260504191502 80 211 0.0 4.3 0.00 0.00 0.00 38 1003.8
20260504190100 80 138 0.0 1.7 0.00 0.00 0.00 39 1004.0
20260504184556 79 194 0.0 4.3 0.00 0.00 0.00 40 1004.1
20260504183053 78 207 0.0 2.6 0.00 0.00 0.00 42 1004.3
20260504181552 77 192 0.0 3.5 0.00 0.00 0.00 42 1004.3
20260504180047 75 175 0.0 3.5 0.00 0.00 0.00 46 1004.4
20260504174548 75 182 0.0 2.6 0.00 0.00 0.00 44 1004.5
20260504173042 74 192 0.0 3.5 0.00 0.00 0.00 45 1004.6
20260504171541 73 131 0.0 3.5 0.00 0.00 0.00 46 1004.8
20260504081543 65 99 0.0 0.0 0.00 0.00 0.00 65 1004.4
20260504044527 71 172 0.0 0.0 0.00 0.00 0.00 55 1004.2
20260504043030 72 172 0.0 0.0 0.00 0.00 0.00 52 1004.1
20260504041529 73 172 0.0 0.0 0.00 0.00 0.00 52 1004.1
20260504040026 73 200 0.0 0.0 0.00 0.00 0.00 52 1003.9
20260504034525 75 205 0.0 0.0 0.00 0.00 0.00 52 1003.9
20260504033025 76 205 0.0 0.0 0.00 0.00 0.00 49 1003.8
20260504031526 77 205 0.0 0.0 0.00 0.00 0.00 49 1003.8
20260504030023 78 205 0.0 0.0 0.00 0.00 0.00 50 1003.7
20260504024522 79 205 0.0 0.0 0.00 0.00 0.00 49 1003.7
20260504023022 80 205 0.0 4.3 0.00 0.00 0.00 50 1003.6
20260504021521 80 194 0.0 0.0 0.00 0.00 0.00 48 1003.7
20260504020032 81 178 0.0 3.5 0.00 0.00 0.00 47 1003.7
20260504014518 83 232 0.0 4.3 0.00 0.00 0.00 45 1003.8
20260504013022 83 118 0.9 4.3 0.00 0.00 0.00 42 1003.9
20260504011517 84 186 0.0 7.0 0.00 0.00 0.00 41 1003.9
20260504010015 84 202 1.7 6.1 0.00 0.00 0.00 39 1004.1
20260504004532 85 207 0.9 4.3 0.00 0.00 0.00 39 1004.1
20260504003016 85 211 0.9 5.2 0.00 0.00 0.00 38 1004.3
20260504001526 85 248 0.0 6.1 0.00 0.00 0.00 39 1004.4
20260504000009 85 192 0.9 6.1 0.00 0.00 0.00 37 1004.6
20260503234513 85 271 0.0 6.1 0.00 0.00 0.00 38 1004.7
20260503233006 85 202 0.9 7.0 0.00 0.00 0.00 38 1004.8
20260503231503 85 229 1.7 4.3 0.00 0.00 0.00 38 1005.0
20260503230003 84 146 0.0 6.1 0.00 0.00 0.00 37 1005.2
20260503224611 85 252 2.6 6.1 0.00 0.00 0.00 36 1005.4
20260503223110 84 252 0.9 7.8 0.00 0.00 0.00 38 1005.6
20260503221554 83 208 0.0 7.8 0.00 0.00 0.00 39 1005.7
20260503220052 83 242 0.0 4.3 0.00 0.00 0.00 35 1006.0